This is the latest recevied weather packets stored in our database for station/object AA5QJ. If no packets are shown the sender has not sent any weather packets the latest 10 day(s).
| Time | Temp. | Humidity | Pressure | Rain* | Wind** | Luminosity | Snow |
|---|---|---|---|---|---|---|---|
| 1778046175 | 1.67° C | 44% | 1010.5 hPa | 0 mm | - | - | - |
| 1778045874 | 2.22° C | 44% | 1010.2 hPa | 0 mm | - | - | - |
| 1778045576 | 0° C | 44% | 1010.5 hPa | 0 mm | - | - | - |
| 1778045276 | 0.56° C | 44% | 1010.2 hPa | 0 mm | - | - | - |
| 1778044975 | 17.78° C | 44% | 1010.2 hPa | 0 mm | - | - | - |
| 1778044675 | 17.78° C | 44% | 1010.2 hPa | 0 mm | - | - | - |
| 1778044375 | 17.78° C | 44% | 1010.2 hPa | 0 mm | - | - | - |
| 1778044075 | 17.78° C | 44% | 1010.2 hPa | 0 mm | - | - | - |
| 1778043774 | 17.78° C | 43% | 1009.9 hPa | 0 mm | - | - | - |
| 1778043476 | 18.33° C | 43% | 1009.9 hPa | 0 mm | - | - | - |
| 1778043176 | 16.67° C | 43% | 1009.5 hPa | 0 mm | - | - | - |
| 1778042875 | 17.78° C | 43% | 1009.5 hPa | 0 mm | - | - | - |
| 1778042575 | 16.67° C | 43% | 1009.5 hPa | 0 mm | - | - | - |
| 1778042275 | 17.78° C | 43% | 1009.5 hPa | 0 mm | - | - | - |
| 1778041974 | 18.33° C | 43% | 1009.5 hPa | 0 mm | - | - | - |
| 1778041676 | 18.33° C | 43% | 1009.5 hPa | 0 mm | - | - | - |
| 1778041376 | 18.33° C | 43% | 1009.5 hPa | 0 mm | - | - | - |
| 1778041076 | 18.33° C | 43% | 1009.2 hPa | 0 mm | - | - | - |
| 1778040775 | 18.89° C | 43% | 1009.2 hPa | 0 mm | - | - | - |
| 1778040476 | 18.89° C | 43% | 1009.2 hPa | 0 mm | - | - | - |
| 1778040175 | 18.89° C | 43% | 1009.2 hPa | 0 mm | - | - | - |
| 1778039875 | 18.89° C | 43% | 1009.2 hPa | 0 mm | - | - | - |
| 1778039575 | 18.89° C | 43% | 1009.2 hPa | 0 mm | - | - | - |
| 1778039274 | 18.89° C | 42% | 1009.2 hPa | 0 mm | - | - | - |
| 1778038976 | 18.89° C | 42% | 1008.8 hPa | 0 mm | - | - | - |
* Rain latest hour (hover to see other rain measurements)
** Current wind speed in m/s (hover to see current wind gust speed)